Home > Weather > Bregenz > Past weeks

Flag for Austria Weather for the Past 2 Weeks in Bregenz, Vorarlberg, Austria

Now
44 °F

Quite cool.


Feels Like: 42 °F
Forecast: 38 / 46 °F
Wind: 5 mph from Southeast

Location: Bregenz

Current Time: Feb 13, 2016 at 5:15:41 PM

Latest Report: Feb 13, 2016 at 4:00 PM


Visibility: N/A

Pressure: 29.23 "Hg

Humidity: 74%

Dew point: 36 °F

Location of BregenzLocation

Historic Weather in Bregenz — Graph

°F

Bregenz Temperature Yesterday

Maximum temperature yesterday: 46 °F (at 4:00 PM)
Minimum temperature yesterday: 34 °F (at 9:00 AM)
Average temperature yesterday: 40 °F

High & Low Weather Summary for the Past Weeks

 TemperatureHumidityPressure
High59 °F (Feb 1, 3:00 PM)100% (Feb 6, 8:00 AM)30.50 "Hg (Feb 6, 8:00 AM)
Low33 °F (Feb 3, 10:00 AM)35% (Feb 7, 7:00 AM)29.23 "Hg (Feb 13, 4:00 PM)
Average43 °F76%29.96 "Hg
* Reported Jan 29 4:00 PM — Feb 13 4:00 PM, Bregenz, Weather by CustomWeather, © 2016

Note: Actual official high and low records may vary slightly from our data, if they occured in-between our weather recording intervals... More about our weather records

Advertising

Bregenz Weather History for the Previous 24 Hours

 ConditionsComfort  
Time TempWeatherWind HumidityBarometerVisibility
4:00 PM
Sat, Feb 13
44 °FQuite cool.5 mph74%29.23 "HgN/A
3:00 PM43 °FQuite cool.5 mph83%29.26 "HgN/A
2:00 PM44 °FQuite cool.2 mph72%29.29 "HgN/A
1:00 PM44 °FOvercast.2 mph69%29.32 "Hg7 mi
12:00 PM44 °FQuite cool.5 mph71%29.32 "HgN/A
11:00 AM41 °FQuite cool.6 mph79%29.38 "HgN/A
10:00 AM38 °FOvercast.8 mph84%29.41 "Hg7 mi
9:00 AM37 °FChilly.7 mph89%29.44 "HgN/A
8:00 AM37 °FChilly.5 mph89%29.44 "HgN/A
7:00 AM36 °FOvercast.6 mph90%29.44 "Hg9 mi
6:00 AM36 °FFog.6 mph92%29.44 "HgN/A
5:00 AM35 °FFog.3 mph92%29.44 "HgN/A
1:00 AM40 °FChilly.1 mph83%29.38 "HgN/A
12:00 AM42 °FQuite cool.2 mph56%29.35 "HgN/A
10:00 PM
Fri, Feb 12
39 °FChilly.No wind83%29.38 "HgN/A
9:00 PM40 °FQuite cool.1 mph72%29.38 "HgN/A
8:00 PM40 °FChilly.1 mph78%29.41 "HgN/A
7:00 PM44 °FQuite cool.2 mph56%29.38 "HgN/A
6:00 PM44 °FQuite cool.5 mph51%29.35 "HgN/A
5:00 PM44 °FQuite cool.1 mph54%29.35 "HgN/A
Weather by CustomWeather, © 2016

See weather overviewHow to use our weather pages